Time,TemperatureF,DewpointF,PressureIn,WindDirection,WindDirectionDegrees,WindSpeedMPH,WindSpeedGustMPH,Humidity,HourlyPrecipIn,Conditions,Clouds,dailyrainin,SoftwareType,DateUTC
2013-02-06 13:01:00,38.0,37.0,-100.00,ESE,106,0.0,0.0,98,-99.99,,,-99.99,,2013-02-06 21:01:00,
2013-02-06 13:11:00,38.0,37.0,-100.00,ESE,106,0.0,0.0,98,-99.99,,,-99.99,,2013-02-06 21:11:00,
2013-02-06 13:21:00,38.0,37.0,-100.00,ESE,106,0.0,0.0,98,-99.99,,,-99.99,,2013-02-06 21:21:00,
2013-02-06 13:31:00,38.0,37.0,-100.00,ESE,106,0.0,0.0,98,-99.99,,,-99.99,,2013-02-06 21:31:00,
2013-02-06 13:41:00,38.0,37.0,-100.00,ESE,106,0.0,0.0,98,-99.99,,,-99.99,,2013-02-06 21:41:00,
2013-02-06 14:01:00,39.0,39.0,-100.00,ENE,67,0.0,2.0,100,0.00,,,-99.99,,2013-02-06 22:01:00,
2013-02-06 14:11:00,39.0,39.0,-100.00,ENE,67,0.0,2.0,100,0.00,,,-99.99,,2013-02-06 22:11:00,
2013-02-06 14:21:00,39.0,39.0,-100.00,ENE,67,0.0,2.0,100,0.00,,,-99.99,,2013-02-06 22:21:00,
2013-02-06 14:31:00,39.0,39.0,-100.00,ENE,67,0.0,2.0,100,0.00,,,-99.99,,2013-02-06 22:31:00,
2013-02-06 14:41:00,39.0,39.0,-100.00,ENE,67,0.0,2.0,100,0.00,,,-99.99,,2013-02-06 22:41:00,
2013-02-06 15:01:00,35.0,35.0,-100.00,SSE,149,0.0,0.0,100,0.02,,,-99.99,,2013-02-06 23:01:00,
2013-02-06 15:11:00,35.0,35.0,-100.00,SSE,149,0.0,0.0,100,0.02,,,-99.99,,2013-02-06 23:11:00,
2013-02-06 15:21:00,35.0,35.0,-100.00,SSE,149,0.0,0.0,100,0.02,,,-99.99,,2013-02-06 23:21:00,
2013-02-06 15:31:00,35.0,35.0,-100.00,SSE,149,0.0,0.0,100,0.02,,,-99.99,,2013-02-06 23:31:00,
2013-02-06 15:41:00,35.0,35.0,-100.00,SSE,149,0.0,0.0,100,0.02,,,-99.99,,2013-02-06 23:41:00,
2013-02-06 16:01:00,34.0,34.0,-100.00,SSE,147,0.0,1.0,100,0.03,,,-99.99,,2013-02-07 00:01:00,
2013-02-06 16:11:00,34.0,34.0,-100.00,SSE,147,0.0,1.0,100,0.03,,,-99.99,,2013-02-07 00:11:00,
2013-02-06 16:21:00,34.0,34.0,-100.00,SSE,147,0.0,1.0,100,0.03,,,-99.99,,2013-02-07 00:21:00,
2013-02-06 16:31:00,34.0,34.0,-100.00,SSE,147,0.0,1.0,100,0.03,,,-99.99,,2013-02-07 00:31:00,
2013-02-06 16:41:00,34.0,34.0,-100.00,SSE,147,0.0,1.0,100,0.03,,,-99.99,,2013-02-07 00:41:00,
2013-02-06 17:01:00,35.0,35.0,-100.00,SE,135,0.0,2.0,100,0.05,,,-99.99,,2013-02-07 01:01:00,
2013-02-06 17:11:00,35.0,35.0,-100.00,SE,135,0.0,2.0,100,0.05,,,-99.99,,2013-02-07 01:11:00,
2013-02-06 17:21:00,35.0,35.0,-100.00,SE,135,0.0,2.0,100,0.05,,,-99.99,,2013-02-07 01:21:00,
2013-02-06 17:31:00,35.0,35.0,-100.00,SE,135,0.0,2.0,100,0.05,,,-99.99,,2013-02-07 01:31:00,
2013-02-06 17:41:00,35.0,35.0,-100.00,SE,135,0.0,2.0,100,0.05,,,-99.99,,2013-02-07 01:41:00,
2013-02-06 18:01:00,33.0,33.0,-100.00,SE,143,0.0,1.0,100,0.02,,,-99.99,,2013-02-07 02:01:00,
2013-02-06 18:11:00,33.0,33.0,-100.00,SE,143,0.0,1.0,100,0.02,,,-99.99,,2013-02-07 02:11:00,
2013-02-06 18:21:00,33.0,33.0,-100.00,SE,143,0.0,1.0,100,0.02,,,-99.99,,2013-02-07 02:21:00,
2013-02-06 18:31:00,33.0,33.0,-100.00,SE,143,0.0,1.0,100,0.02,,,-99.99,,2013-02-07 02:31:00,
2013-02-06 18:41:00,33.0,33.0,-100.00,SE,143,0.0,1.0,100,0.02,,,-99.99,,2013-02-07 02:41:00,
2013-02-06 19:02:00,33.0,33.0,-100.00,SSE,168,0.0,3.0,100,0.01,,,-99.99,,2013-02-07 03:02:00,
2013-02-06 19:11:00,33.0,33.0,-100.00,SSE,168,0.0,3.0,100,0.01,,,-99.99,,2013-02-07 03:11:00,
2013-02-06 19:21:00,33.0,33.0,-100.00,SSE,168,0.0,3.0,100,0.01,,,-99.99,,2013-02-07 03:21:00,
2013-02-06 19:31:00,33.0,33.0,-100.00,SSE,168,0.0,3.0,100,0.01,,,-99.99,,2013-02-07 03:31:00,
2013-02-06 19:41:00,33.0,33.0,-100.00,SSE,168,0.0,3.0,100,0.01,,,-99.99,,2013-02-07 03:41:00,
2013-02-06 20:01:00,33.0,33.0,-100.00,SE,141,0.0,5.0,100,0.03,,,-99.99,,2013-02-07 04:01:00,
2013-02-06 20:11:00,33.0,33.0,-100.00,SE,141,0.0,5.0,100,0.03,,,-99.99,,2013-02-07 04:11:00,
2013-02-06 20:22:00,33.0,33.0,-100.00,SE,141,0.0,5.0,100,0.03,,,-99.99,,2013-02-07 04:22:00,
2013-02-06 20:31:00,33.0,33.0,-100.00,SE,141,0.0,5.0,100,0.03,,,-99.99,,2013-02-07 04:31:00,
2013-02-06 20:41:00,33.0,33.0,-100.00,SE,141,0.0,5.0,100,0.03,,,-99.99,,2013-02-07 04:41:00,
2013-02-06 21:01:00,34.0,34.0,-100.00,South,191,0.0,1.0,100,0.01,,,-99.99,,2013-02-07 05:01:00,
2013-02-06 21:11:00,34.0,34.0,-100.00,South,191,0.0,1.0,100,0.01,,,-99.99,,2013-02-07 05:11:00,
2013-02-06 21:21:00,34.0,34.0,-100.00,South,191,0.0,1.0,100,0.01,,,-99.99,,2013-02-07 05:21:00,
2013-02-06 21:32:00,34.0,34.0,-100.00,South,191,0.0,1.0,100,0.01,,,-99.99,,2013-02-07 05:32:00,
2013-02-06 21:42:00,34.0,34.0,-100.00,South,191,0.0,1.0,100,0.01,,,-99.99,,2013-02-07 05:42:00,